Location: Newark
(0.0000°N, 0.0000°E)
Time: 12:41:26
(UTC+00:00)

Hubble Space Telescope - Visible Passes

Search period start: 19 June 2019 00:00
Search period end: 29 June 2019 00:00
Orbit: 536 x 540 km, 28.5° (Epoch: 18 June)

Date Brightness Start Highest point End Pass type
(mag) Time Alt. Az. Time Alt. Az. Time Alt. Az.
19 Jun 1.4 18:54:55 10° SW 18:58:45 36° SSE 19:00:53 21° E visible
19 Jun 3.9 20:36:09 10° W 20:36:19 11° W 20:36:19 11° W visible
20 Jun 0.9 18:44:12 10° SW 18:48:14 51° SSE 18:52:15 10° ENE visible
20 Jun 3.4 20:26:02 10° W 20:27:48 19° WNW 20:27:48 19° WNW visible
21 Jun 3.9 05:00:32 10° N 05:01:39 11° NNE 05:02:47 10° NE visible
21 Jun 0.7 18:33:34 10° SW 18:37:43 75° SSE 18:41:51 10° ENE visible
21 Jun 3.3 20:16:06 10° WNW 20:18:54 17° NNW 20:19:19 17° NNW visible
22 Jun 3.6 04:48:49 10° N 04:51:12 15° NNE 04:53:35 10° ENE visible
22 Jun 1.0 18:23:03 10° WSW 18:27:11 75° NNW 18:31:19 10° NE visible
22 Jun 3.7 20:06:30 10° NW 20:08:26 13° NNW 20:10:22 10° N visible
23 Jun 3.3 04:37:38 10° NNW 04:40:44 20° NNE 04:43:49 10° ENE visible
24 Jun 2.7 04:26:42 10° NNW 04:30:14 28° NNE 04:33:47 10° E visible
25 Jun 2.0 04:18:02 26° NNW 04:19:43 39° NNE 04:23:35 10° E visible
26 Jun 1.4 04:09:33 54° NE 04:09:33 54° NE 04:13:15 10° ESE visible
27 Jun 2.6 04:00:57 26° ESE 04:00:57 26° ESE 04:02:49 10° ESE visible
27 Jun 2.5 05:37:16 10° WSW 05:39:53 16° SSW 05:42:31 10° SSE visible
28 Jun 3.6 03:52:12 10° SE 03:52:12 10° SE 03:52:16 10° SE visible
28 Jun 2.8 05:27:49 10° SW 05:29:26 12° SSW 05:31:03 10° S visible
